VE2XOX Weather Reports


time (UTC)temp
F
wind
direction
speed
knots
gust
knots
rain 1hr
in
rain 24hr
in
rain mn
in
humidity
%
barometer
mb
20260507095514 0 0.0 0.0 0.00 2.36 0.00 1003.7
20260507095107 -90 304 0.0 1.7 0.00 2.36 0.00 88 1003.8
20260507094601 -90 304 0.0 1.7 0.00 2.36 0.00 88 1003.8
20260507094508 -90 304 0.0 1.7 0.00 0.47 0.00 88 1004.0
20260507094012 40 304 0.0 1.7 0.00 2.36 0.00 89 1003.8
20260507093520 41 303 0.0 0.9 0.00 2.36 0.00 89 1003.8
20260507093029 42 303 0.0 0.9 0.00 2.36 0.00 89 1003.8
20260507093019 41 303 0.0 0.9 0.00 0.47 0.00 89 1004.1
20260507092514 42 303 0.0 0.0 0.00 2.36 0.00 88 1003.9
20260507092020 42 310 0.0 4.3 0.00 2.36 0.00 88 1003.9
20260507091533 42 310 0.0 4.3 0.00 2.36 0.00 88 1003.9
20260507091525 42 310 0.0 4.3 0.00 0.47 0.00 88 1004.1
20260507091015 42 312 1.7 4.3 0.00 2.36 0.00 87 1004.0
20260507090522 43 291 1.7 4.3 0.00 2.36 0.00 86 1004.0
20260507090032 43 306 1.7 6.1 0.00 2.36 0.00 85 1004.1
20260507090019 42 305 1.7 6.1 0.00 0.47 0.00 85 1004.3
20260507085518 43 303 1.7 7.0 0.00 2.36 0.00 85 1004.1
20260507085022 43 332 2.6 7.0 0.00 2.36 0.00 85 1004.0
20260507084533 43 303 2.6 5.2 0.00 2.36 0.00 86 1004.1
20260507084524 42 306 1.7 5.2 0.00 0.47 0.00 86 1004.3
20260507084018 43 312 1.7 4.3 0.00 2.36 0.00 87 1004.1
20260507083524 43 305 1.7 2.6 0.00 2.36 0.00 87 1004.0
20260507083036 43 314 0.0 1.7 0.00 2.36 0.00 87 1004.1
20260507083022 42 314 0.0 1.7 0.00 0.47 0.00 87 1004.4
20260507082520 43 314 0.9 3.5 0.00 2.36 0.00 87 1004.3
20260507082025 43 315 0.0 5.2 0.00 2.36 0.00 87 1004.2
20260507081536 42 327 1.7 5.2 0.00 0.47 0.00 87 1004.5
20260507081515 43 332 2.6 5.2 0.00 2.36 0.00 87 1004.3
20260507081026 43 327 1.7 5.2 0.00 2.36 0.00 87 1004.2
20260507080529 43 323 1.7 3.5 0.00 2.36 0.00 87 1004.2
20260507080040 42 334 1.7 3.5 0.00 0.47 0.00 87 1004.5
20260507080015 43 334 1.7 3.5 0.00 2.36 0.00 87 1004.2
20260507075526 43 319 0.9 3.5 0.00 2.36 0.00 87 1004.3
20260507075029 43 309 1.7 3.5 0.00 2.36 0.00 87 1004.3
20260507074541 42 314 0.0 2.6 0.00 0.47 0.00 87 1004.5
20260507074515 43 314 0.9 2.6 0.00 2.36 0.00 87 1004.2
20260507074029 43 305 0.0 2.6 0.00 2.36 0.00 87 1004.2
20260507073516 43 307 1.7 2.6 0.00 2.36 0.00 87 1004.3
20260507073047 42 309 0.0 2.6 0.00 0.47 0.00 88 1004.5
20260507073020 43 309 0.9 2.6 0.00 2.36 0.00 88 1004.3
20260507072534 43 308 0.9 2.6 0.00 2.36 0.00 88 1004.3
20260507072020 43 308 0.9 3.5 0.00 2.36 0.00 88 1004.2
20260507071557 42 308 0.0 3.5 0.00 0.47 0.00 88 1004.5
20260507071526 43 308 0.0 3.5 0.00 2.36 0.00 88 1004.3
20260507071012 43 305 1.7 3.5 0.00 2.36 0.00 88 1004.4
20260507070524 42 306 0.9 4.3 0.00 2.36 0.00 88 1004.5
20260507070100 42 308 1.7 4.3 0.00 0.47 0.00 88 1004.8
20260507070027 42 312 2.6 4.3 0.00 2.36 0.00 89 1004.5
20260507065514 42 311 1.7 3.5 0.00 2.36 0.00 89 1004.5
20260507065026 42 300 1.7 3.5 0.00 2.36 0.00 89 1004.5
20260507064601 41 297 0.9 3.5 0.00 0.47 0.00 89 1004.8
20260507064511 42 291 0.9 3.5 0.00 2.36 0.00 89 1004.6
20260507064017 42 307 1.7 3.5 0.00 2.36 0.00 90 1004.5
20260507063530 41 315 1.7 3.5 0.00 2.36 0.00 90 1004.6
20260507063104 41 310 0.0 1.7 0.00 0.47 0.00 90 1004.8
20260507063014 41 310 0.9 1.7 0.00 2.36 0.00 90 1004.6
20260507062520 41 301 0.0 0.0 0.00 2.36 0.00 90 1004.7
20260507062029 41 300 0.0 0.0 0.00 2.36 0.00 91 1004.7
20260507061604 40 300 0.0 0.9 0.00 0.47 0.00 91 1005.0
20260507061512 41 300 0.0 0.9 0.00 2.36 0.00 91 1004.8
20260507061017 41 300 0.0 1.7 0.00 2.36 0.00 91 1004.8
20260507060531 41 305 0.0 3.5 0.00 2.36 0.00 90 1004.9
20260507060107 41 298 0.0 4.3 0.00 0.47 0.00 90 1005.1
20260507060029 41 298 0.9 4.3 0.00 2.36 0.00 90 1004.9
20260507055515 41 300 0.9 4.3 0.00 2.36 0.00 90 1005.0
20260507055027 41 299 0.9 5.2 0.00 2.36 0.00 90 1005.0
20260507054610 41 292 1.7 5.2 0.00 0.47 0.00 90 1005.2
20260507054529 41 297 1.7 5.2 0.00 2.36 0.00 90 1005.1
20260507054016 41 305 1.7 6.1 0.00 2.36 0.00 90 1005.1
20260507053530 41 309 2.6 6.1 0.00 2.36 0.00 90 1005.2
20260507053111 41 303 0.9 4.3 0.00 0.47 0.00 90 1005.3
20260507053033 41 285 1.7 4.3 0.00 2.36 0.00 90 1005.2
20260507052515 42 308 0.9 4.3 0.00 2.36 0.00 90 1005.1
20260507052026 42 293 1.7 4.3 0.00 2.36 0.00 89 1005.1
20260507051608 42 293 0.9 2.6 0.00 0.47 0.00 89 1005.4
20260507051514 42 293 0.9 3.5 0.00 2.36 0.00 89 1005.2
20260507051021 42 293 0.9 3.5 0.00 2.36 0.00 89 1005.2
20260507050533 42 311 0.9 2.6 0.00 2.36 0.00 89 1005.2
20260507050110 42 305 0.0 2.6 0.00 0.47 0.00 89 1005.4
20260507050018 42 293 0.0 1.7 0.00 2.36 0.00 89 1005.3
20260507045523 42 284 0.0 1.7 0.00 2.36 0.00 89 1005.2
20260507045034 42 284 0.9 1.7 0.00 2.36 0.00 90 1005.2
20260507044612 42 284 0.0 0.9 0.00 0.47 0.00 89 1005.4
20260507044519 42 284 0.0 0.9 0.00 2.36 0.00 89 1005.2
20260507044023 43 284 0.0 1.7 0.00 2.36 0.00 89 1005.2
20260507043536 43 284 0.9 1.7 0.00 2.36 0.00 89 1005.2
20260507043114 42 298 0.0 0.9 0.00 0.47 0.00 89 1005.5
20260507043020 43 305 0.0 0.0 0.00 2.36 0.00 89 1005.3
20260507042525 43 308 0.0 3.5 0.00 2.36 0.00 89 1005.2
20260507042033 43 308 0.9 4.3 0.00 2.36 0.00 89 1005.2
20260507041610 42 296 1.7 4.3 0.00 0.47 0.00 89 1005.6
20260507041517 43 296 2.6 4.3 0.00 2.36 0.00 89 1005.3
20260507041022 43 315 1.7 4.3 0.00 2.36 0.00 89 1005.5
20260507040534 43 305 1.7 7.0 0.00 2.36 0.00 90 1005.5
20260507040110 42 300 1.7 7.0 0.00 0.47 0.00 90 1005.8
20260507040018 43 303 2.6 7.0 0.00 2.36 0.47 90 1005.6
20260507035525 43 310 0.9 6.1 0.00 2.36 0.47 90 1005.6
20260507035011 43 296 3.5 6.1 0.00 2.36 0.47 90 1005.6
20260507034524 43 304 2.6 5.2 0.00 2.36 0.47 90 1005.7
20260507034502 42 303 2.6 5.2 0.00 0.47 0.47 90 1005.9
20260507034028 43 322 1.7 4.3 0.00 2.36 0.47 90 1005.8
20260507033515 43 285 1.7 4.3 0.00 2.36 0.47 90 1005.8
20260507033026 43 299 0.0 1.7 0.00 2.36 0.47 90 1005.8
20260507033004 42 300 0.0 2.6 0.00 0.47 0.47 90 1006.0
20260507032511 43 292 0.9 3.5 0.00 2.36 0.47 90 1005.9
20260507032018 43 280 0.9 3.5 0.00 2.36 0.47 90 1005.8
20260507031531 43 280 0.9 4.3 0.00 2.36 0.47 91 1005.9
20260507031510 42 281 0.0 4.3 0.00 0.47 0.47 91 1006.1
20260507031014 43 280 1.7 3.5 0.00 2.36 0.47 91 1005.9
20260507030522 43 286 0.0 3.5 0.00 2.36 0.47 91 1005.9
20260507030034 43 280 0.9 2.6 0.00 2.36 0.47 91 1006.0
20260507030013 42 280 0.0 2.6 0.00 0.47 0.47 91 1006.2
20260507025520 43 279 0.0 2.6 0.00 2.36 0.47 91 1005.9
20260507025022 43 290 0.9 2.6 0.00 2.36 0.47 91 1005.9
20260507024536 43 295 0.9 2.6 0.00 2.36 0.47 91 1006.0
20260507024516 42 295 0.9 2.6 0.00 0.47 0.47 91 1006.2
20260507024022 43 288 0.0 2.6 0.00 2.36 0.47 91 1006.0
20260507023530 43 288 0.9 2.6 0.00 2.36 0.47 91 1006.2
20260507023034 42 290 0.0 2.6 0.00 0.47 0.47 91 1006.4
20260507023014 43 290 0.9 2.6 0.00 2.36 0.47 91 1006.2
20260507022526 43 274 0.0 2.6 0.00 2.36 0.47 91 1006.1
20260507022011 43 279 0.9 2.6 0.00 2.36 0.47 91 1006.0
20260507021535 42 276 0.0 2.6 0.00 0.47 0.47 91 1006.1
20260507021518 43 276 0.0 2.6 0.00 2.36 0.47 91 1006.0
20260507021031 43 282 0.9 2.6 0.00 2.36 0.47 91 1005.9
20260507020518 43 306 0.9 0.9 0.00 2.36 0.47 91 1006.0
20260507020048 42 307 0.0 0.0 0.00 0.50 0.47 91 1006.0
20260507020023 42 307 0.0 0.0 0.00 2.52 0.47 91 1005.9
20260507015536 43 307 0.0 0.0 0.00 2.52 0.47 91 1006.0
20260507015021 43 307 0.0 0.0 0.00 2.52 0.47 91 1005.9
20260507014546 42 307 0.0 0.0 0.00 0.50 0.47 91 1006.2
20260507014526 43 307 0.0 0.0 0.00 2.52 0.47 91 1006.0
20260507014012 43 307 0.0 0.0 0.00 2.52 0.47 91 1006.0
20260507013526 43 307 0.0 0.0 0.00 2.52 0.47 91 1006.0
20260507013059 42 307 0.0 0.0 0.00 0.50 0.47 91 1006.2
20260507013030 43 307 0.0 0.0 0.00 2.52 0.47 91 1006.1
20260507012516 43 307 0.0 0.9 0.00 2.52 0.47 91 1006.0
20260507012026 43 307 0.9 0.9 0.00 2.52 0.47 91 1006.2
20260507011556 42 307 0.0 0.0 0.00 0.50 0.47 91 1006.3
20260507011512 43 307 0.0 0.0 0.00 2.52 0.47 91 1006.2
20260507011019 43 307 0.0 0.0 0.00 2.52 0.47 90 1006.3
20260507010530 43 307 0.0 0.0 0.00 2.52 0.47 90 1006.3
20260507010055 42 307 0.0 0.9 0.00 0.51 0.47 90 1006.4
20260507010013 43 307 0.0 0.9 0.00 2.56 0.47 90 1006.2
20260507005519 43 307 0.0 0.9 0.00 2.56 0.47 90 1006.3
20260507005030 43 307 0.0 0.9 0.00 2.56 0.47 90 1006.3
20260507004559 43 307 0.0 0.0 0.00 0.51 0.47 90 1006.4
20260507004515 43 307 0.0 0.0 0.00 2.56 0.47 90 1006.3
20260507004021 43 307 0.0 0.9 0.00 2.56 0.47 90 1006.3
20260507003532 44 307 0.0 0.9 0.00 2.56 0.47 89 1006.3
20260507003056 43 307 0.0 0.0 0.00 0.51 0.47 89 1006.4
20260507003015 44 307 0.0 0.0 0.00 2.56 0.47 89 1006.3
20260507002522 44 307 0.0 0.0 0.00 2.56 0.47 89 1006.2
20260507002033 44 307 0.0 0.0 0.00 2.56 0.47 89 1006.2
20260507001559 44 307 0.0 0.0 0.00 0.51 0.47 88 1006.4
20260507001517 44 307 0.0 0.0 0.00 2.56 0.47 88 1006.2
20260507001021 45 307 0.0 0.0 0.00 2.56 0.47 88 1006.4
20260507000534 45 307 0.0 1.7 0.00 2.56 0.47 88 1006.3
20260507000101 44 307 0.0 1.7 0.00 0.56 0.47 88 1006.4
20260507000019 45 307 0.0 1.7 0.00 2.83 0.47 88 1006.3
20260506235526 45 307 0.0 2.6 0.00 2.83 0.47 87 1006.3
20260506235013 45 307 0.0 2.6 0.00 2.83 0.47 87 1006.3
20260506234609 45 310 0.0 4.3 0.00 0.56 0.47 87 1006.4
20260506234525 45 309 0.0 4.3 0.00 2.83 0.47 87 1006.3
20260506234030 45 309 1.7 4.3 0.00 2.83 0.47 87 1006.3
20260506233518 45 304 0.9 2.6 0.00 2.83 0.47 87 1006.4
20260506233114 45 300 0.0 1.7 0.00 0.56 0.47 87 1006.4
20260506233012 45 300 0.0 1.7 0.00 2.83 0.47 87 1006.2
20260506232519 45 300 0.0 0.9 0.00 2.83 0.47 86 1006.1
20260506232026 45 300 0.0 0.9 0.00 2.83 0.47 86 1006.1
20260506231518 45 299 0.0 1.7 0.00 2.83 0.47 86 1006.1
20260506231511 45 299 0.0 1.7 0.00 0.56 0.47 86 1006.2
20260506231025 46 301 0.9 1.7 0.00 2.83 0.47 86 1006.1
20260506230512 46 302 0.0 1.7 0.00 2.83 0.47 86 1006.1
20260506230025 46 302 0.0 2.6 0.00 2.87 0.47 86 1006.2
20260506230011 45 302 0.0 2.6 0.00 0.56 0.47 86 1006.3
20260506225531 46 302 0.9 2.6 0.00 2.87 0.47 86 1006.2
20260506225017 46 301 0.0 3.5 0.00 2.87 0.47 86 1006.2
20260506224530 46 302 0.9 3.5 0.00 2.87 0.47 86 1006.1
20260506224520 45 302 0.0 3.5 0.00 0.56 0.47 86 1006.2
20260506224016 46 304 0.0 4.3 0.00 2.87 0.47 86 1006.3
20260506223524 46 304 1.7 4.3 0.00 2.87 0.47 85 1006.4
20260506223035 46 305 2.6 4.3 0.00 2.87 0.47 85 1006.3
20260506223022 45 305 2.6 4.3 0.00 0.56 0.47 85 1006.4
20260506222520 46 287 0.9 2.6 0.00 2.87 0.47 86 1006.2
20260506222024 46 287 0.9 2.6 0.00 2.87 0.47 86 1006.2
20260506221538 46 286 0.9 3.5 0.00 2.87 0.47 86 1006.2
20260506221525 45 286 0.0 3.5 0.00 0.56 0.47 86 1006.3
20260506221020 46 294 1.7 3.5 0.00 2.87 0.47 86 1006.3
20260506220524 46 294 0.9 3.5 0.00 2.87 0.47 86 1006.4
20260506220036 46 289 0.9 3.5 0.00 3.07 0.47 86 1006.4
20260506220024 45 289 0.0 3.5 0.00 0.61 0.47 86 1006.5
20260506215522 46 306 1.7 3.5 0.00 3.07 0.47 87 1006.4
20260506215028 46 298 0.9 2.6 0.00 3.07 0.47 86 1006.3
20260506214558 45 303 0.0 3.5 0.00 0.61 0.47 87 1006.6
20260506214513 46 300 0.9 3.5 0.00 3.07 0.47 87 1006.5
20260506214026 46 305 0.9 3.5 0.00 3.07 0.47 86 1006.4
20260506213531 46 304 0.9 3.5 0.04 3.07 0.47 86 1006.4
20260506213045 45 305 0.9 2.6 0.01 0.61 0.47 87 1006.5
20260506213014 46 305 0.9 2.6 0.04 3.07 0.47 87 1006.4
20260506212527 46 303 0.9 1.7 0.04 3.07 0.47 86 1006.4
20260506212013 46 302 0.9 3.5 0.04 3.07 0.47 86 1006.5
20260506211549 45 302 0.0 3.5 0.01 0.61 0.47 86 1006.6
20260506211520 46 302 0.9 3.5 0.04 3.07 0.47 86 1006.5
20260506211033 46 306 1.7 3.5 0.04 3.07 0.47 86 1006.4
20260506210520 46 298 0.9 2.6 0.04 3.07 0.47 86 1006.3
20260506210053 45 298 0.0 4.3 0.01 0.61 0.47 86 1006.3
20260506210021 46 298 0.0 4.3 0.04 3.07 0.47 86 1006.3
20260506205533 45 303 0.9 3.5 0.04 3.07 0.47 86 1006.3
20260506205019 45 313 0.0 3.5 0.04 3.07 0.47 86 1006.4
20260506204608 45 295 0.0 2.6 0.01 0.61 0.47 86 1006.5
20260506204523 46 294 0.0 2.6 0.04 3.07 0.47 86 1006.4
20260506204013 46 300 0.9 2.6 0.04 3.07 0.47 86 1006.6
20260506203527 46 298 0.9 2.6 0.00 3.03 0.46 86 1006.7
20260506203055 45 298 0.0 2.6 0.00 0.61 0.46 86 1006.8
20260506203028 46 298 0.9 2.6 0.00 3.03 0.46 86 1006.8
20260506202514 46 318 0.9 2.6 0.00 3.03 0.46 85 1006.7
20260506202023 46 296 0.9 2.6 0.00 3.03 0.46 85 1006.7
20260506201554 45 296 0.0 1.7 0.00 0.61 0.46 86 1006.8
20260506201528 46 296 0.0 1.7 0.00 3.03 0.46 86 1006.8
20260506201013 45 294 0.9 2.6 0.04 3.03 0.46 86 1006.7
20260506200525 45 296 0.0 2.6 0.04 3.03 0.46 86 1006.7
20260506200055 45 296 0.0 2.6 0.01 0.61 0.46 87 1006.8
20260506200028 45 291 0.0 1.7 0.04 3.03 0.46 87 1006.7
20260506195514 45 291 0.0 2.6 0.04 3.03 0.46 87 1006.8
20260506195027 45 291 0.9 2.6 0.04 3.03 0.46 86 1006.8
20260506194607 45 291 0.0 1.7 0.01 0.61 0.46 88 1006.7
20260506194530 46 291 0.9 1.7 0.04 3.03 0.46 88 1006.7
20260506194013 45 291 0.0 1.7 0.04 3.03 0.46 88 1006.7
20260506193527 45 291 0.0 1.7 0.04 3.03 0.46 87 1006.9
20260506193101 45 291 0.0 1.7 0.01 0.61 0.46 88 1007.1
20260506193012 45 291 0.0 1.7 0.04 3.03 0.46 88 1007.0
20260506192518 45 279 0.9 1.7 0.04 3.03 0.46 87 1007.1
20260506192028 45 282 0.0 1.7 0.04 3.03 0.46 87 1007.0
20260506191602 45 282 0.0 2.6 0.02 0.61 0.46 87 1007.1
20260506191513 45 275 0.9 2.6 0.08 3.03 0.46 87 1007.1
20260506191020 45 273 0.9 4.3 0.04 2.99 0.46 87 1007.0
20260506190534 45 285 0.9 4.3 0.08 2.99 0.46 87 1007.0
20260506190106 44 271 0.0 3.5 0.02 0.60 0.46 87 1007.0
20260506190018 45 305 0.0 3.5 0.08 2.99 0.46 86 1007.0
20260506185522 45 308 1.7 3.5 0.12 2.99 0.46 86 1007.2
20260506185034 45 291 0.0 1.7 0.12 2.99 0.46 86 1007.2
20260506184611 44 291 0.0 2.6 0.03 0.60 0.46 86 1007.2
20260506184520 44 289 0.0 2.6 0.16 2.99 0.46 85 1007.2
20260506184024 45 321 1.7 2.6 0.16 2.99 0.46 86 1007.2
20260506183536 44 316 0.0 3.5 0.20 2.99 0.46 87 1007.2
20260506183114 44 323 0.0 3.5 0.04 0.60 0.46 86 1007.2
20260506183022 44 323 0.9 3.5 0.24 2.99 0.46 85 1007.2
20260506182529 44 308 0.0 1.7 0.24 2.99 0.46 88 1007.4
20260506182015 44 308 0.0 0.9 0.28 2.99 0.46 88 1007.3
20260506181528 44 309 0.0 2.6 0.24 2.95 0.45 88 1007.4
20260506181507 43 310 0.0 2.6 0.05 0.59 0.45 87 1007.4
20260506181014 44 310 0.0 2.6 0.28 2.95 0.45 87 1007.4
20260506180521 44 310 0.0 0.0 0.24 2.91 0.44 88 1007.4
20260506180030 44 310 0.0 0.0 0.24 3.43 0.44 88 1007.6
20260506180007 43 310 0.0 0.0 0.05 0.69 0.44 88 1007.6
20260506175515 44 310 0.0 0.0 0.24 3.39 0.43 88 1007.6
20260506175022 44 310 0.0 1.7 0.28 3.39 0.43 88 1007.8
20260506174532 44 309 0.0 1.7 0.24 3.35 0.43 88 1007.8
20260506174510 43 310 0.0 1.7 0.05 0.67 0.43 88 1007.8
20260506174020 43 309 0.9 1.7 0.24 3.31 0.42 88 1007.8
20260506173527 43 303 0.0 0.9 0.24 3.31 0.42 88 1007.9
20260506173028 43 303 0.0 1.7 0.05 0.65 0.41 88 1007.8
20260506173013 44 303 0.0 1.7 0.24 3.27 0.41 88 1007.8
20260506172526 44 305 0.9 2.6 0.28 3.27 0.41 89 1007.9
20260506172028 44 335 1.7 2.6 0.28 3.23 0.40 88 1007.9
20260506171549 43 296 0.0 2.6 0.06 0.65 0.40 88 1008.0
20260506171515 44 296 0.9 2.6 0.28 3.23 0.40 88 1008.0
20260506171027 44 296 1.7 1.7 0.28 3.19 0.39 88 1008.0
20260506170513 44 303 0.0 1.7 0.28 3.19 0.39 89 1008.0
20260506170039 43 302 0.0 0.9 0.06 0.74 0.39 89 1008.0
20260506170017 44 302 0.0 0.9 0.28 3.70 0.39 89 1008.0
20260506165528 44 302 0.0 1.7 0.31 3.70 0.39 88 1008.1
20260506165027 44 302 0.9 1.7 0.31 3.66 0.38 89 1008.1
20260506164534 43 300 0.0 1.7 0.07 0.73 0.38 88 1008.2
20260506164514 44 300 0.0 1.7 0.35 3.66 0.38 89 1008.2
20260506164027 44 300 0.0 2.6 0.35 3.62 0.37 88 1008.3
20260506163513 44 300 1.7 2.6 0.39 3.62 0.37 89 1008.3
20260506163042 43 298 0.0 2.6 0.08 0.72 0.36 89 1008.4
20260506163017 44 298 0.0 2.6 0.39 3.58 0.36 89 1008.4
20260506162530 44 298 0.9 2.6 0.39 3.54 0.35 89 1008.4
20260506162015 44 298 0.9 1.7 0.43 3.50 0.35 88 1008.5
20260506161540 43 298 0.0 2.6 0.09 0.70 0.35 88 1008.5
20260506161520 44 298 0.0 2.6 0.47 3.50 0.35 88 1008.5
20260506161030 44 298 0.9 2.6 0.51 3.46 0.34 89 1008.5
20260506160516 44 298 1.7 2.6 0.55 3.46 0.34 89 1008.6
20260506160041 43 298 0.0 2.6 0.12 0.69 0.33 90 1008.5
20260506160020 44 297 0.0 2.6 0.59 3.43 0.33 90 1008.6
20260506155532 44 298 1.7 2.6 0.59 3.39 0.32 89 1008.7
20260506155018 44 305 0.9 2.6 0.59 3.35 0.31 89 1008.7
20260506154606 43 291 0.9 4.3 0.12 0.66 0.31 89 1008.7
20260506154524 44 291 0.9 4.3 0.59 3.31 0.31 89 1008.7
20260506154036 44 281 0.9 4.3 0.59 3.27 0.30 89 1008.7
20260506153524 44 291 1.7 4.3 0.59 3.23 0.29 89 1008.8
20260506153049 43 281 0.0 6.1 0.12 0.64 0.28 89 1008.8
20260506153028 44 281 0.9 6.1 0.59 3.19 0.28 89 1008.8
20260506152512 44 298 2.6 5.2 0.55 3.11 0.27 90 1008.9
20260506152025 44 299 0.9 5.2 0.51 3.07 0.26 90 1009.0
20260506151552 44 255 1.7 6.1 0.10 0.61 0.25 90 1009.0
20260506151511 45 277 2.6 6.1 0.51 3.03 0.25 90 1009.1
20260506151018 44 282 1.7 6.1 0.43 2.95 0.24 90 1009.1
20260506150527 45 293 1.7 3.5 0.43 2.91 0.23 90 1009.0
20260506150052 44 275 0.9 4.3 0.08 0.56 0.21 90 1008.9
20260506150029 45 275 0.9 4.3 0.39 2.83 0.21 90 1008.9
20260506145515 45 277 1.7 4.3 0.35 2.80 0.20 90 1008.8
20260506145020 45 279 0.0 4.3 0.35 2.76 0.20 90 1008.7
20260506144558 44 280 1.7 4.3 0.06 0.54 0.19 89 1008.6
20260506144523 45 293 1.7 4.3 0.31 2.72 0.19 89 1008.6
20260506144021 45 289 0.9 4.3 0.28 2.64 0.17 89 1008.7
20260506143524 45 289 1.7 4.3 0.28 2.64 0.17 89 1008.7
20260506143044 45 289 0.9 2.6 0.06 0.52 0.17 89 1008.7
20260506143029 45 278 0.9 2.6 0.28 2.60 0.17 90 1008.7
20260506142514 45 293 0.9 4.3 0.24 2.56 0.16 89 1008.7
20260506142027 45 300 1.7 4.3 0.28 2.56 0.16 89 1008.7
20260506141548 45 296 0.0 4.3 0.05 0.50 0.15 89 1008.7
20260506141512 45 296 0.0 4.3 0.24 2.52 0.15 89 1008.7
20260506141013 45 304 2.6 4.3 0.28 2.52 0.15 89 1008.7
20260506140524 45 304 1.7 4.3 0.24 2.48 0.14 89 1008.6
20260506140055 45 300 0.0 4.3 0.05 0.49 0.13 89 1008.6
20260506140025 45 300 0.9 4.3 0.24 2.44 0.13 89 1008.6
20260506135536 45 309 1.7 5.2 0.24 2.44 0.13 89 1008.6
20260506135023 45 315 2.6 6.1 0.24 2.40 0.13 89 1008.6
20260506134545 44 303 1.7 6.1 0.06 0.48 0.13 88 1008.6
20260506134528 45 298 2.6 6.1 0.28 2.40 0.13 88 1008.6
20260506134013 45 303 2.6 5.2 0.28 2.36 0.12 89 1008.5
20260506133528 45 286 2.6 8.7 0.28 2.36 0.12 89 1008.6
20260506133054 45 310 1.7 8.7 0.05 0.46 0.11 89 1008.6
20260506133012 45 305 0.9 7.0 0.24 2.32 0.11 89 1008.6
20260506132524 45 306 1.7 4.3 0.28 2.32 0.11 90 1008.6
20260506132026 45 308 1.7 4.3 0.28 2.28 0.10 89 1008.6
20260506131547 45 306 1.7 5.2 0.06 0.46 0.10 89 1008.6
20260506131530 45 305 1.7 5.2 0.28 2.28 0.10 89 1008.6
20260506131017 45 292 2.6 6.1 0.28 2.24 0.09 89 1008.6
20260506130531 45 293 2.6 6.1 0.28 2.24 0.09 89 1008.7
20260506130053 45 297 2.6 5.2 0.06 0.44 0.09 89 1008.7
20260506130016 45 312 2.6 5.2 0.28 2.20 0.09 89 1008.7
20260506125521 45 303 1.7 7.0 0.24 2.17 0.08 89 1008.6
20260506125013 45 300 2.6 7.0 0.20 2.13 0.07 89 1008.5
20260506124556 45 300 0.9 7.0 0.05 0.43 0.07 89 1008.5
20260506124516 45 281 1.7 7.0 0.24 2.13 0.07 89 1008.5
20260506124020 45 342 2.6 6.1 0.20 2.09 0.06 88 1008.5
20260506123512 45 302 1.7 6.1 0.20 2.09 0.06 88 1008.5
20260506123054 45 317 3.5 6.1 0.04 0.42 0.06 88 1008.5
20260506123017 45 325 2.6 6.1 0.16 2.05 0.06 88 1008.6
20260506122523 46 308 2.6 5.2 0.16 2.05 0.06 87 1008.5
20260506122013 46 312 2.6 7.0 0.12 2.01 0.05 87 1008.5
20260506121553 45 309 1.7 8.7 0.03 0.40 0.05 86 1008.4
20260506121516 46 311 2.6 8.7 0.16 2.01 0.05 86 1008.5
20260506121027 46 293 4.3 8.7 0.12 1.97 0.04 85 1008.4
20260506120529 46 307 2.6 8.7 0.12 1.97 0.04 85 1008.4
20260506120049 46 308 4.3 9.6 0.02 0.39 0.03 85 1008.3
20260506120013 47 303 4.3 9.6 0.08 1.93 0.03 84 1008.4
20260506115524 47 355 5.2 10.4 0.08 1.93 0.03 84 1008.5
20260506115027 47 318 5.2 9.6 0.08 1.93 0.03 83 1008.5
20260506114548 47 293 1.7 9.6 0.01 0.38 0.02 84 1008.4
20260506114530 48 311 1.7 9.6 0.04 1.89 0.02 84 1008.5
20260506114023 48 298 4.3 9.6 0.04 1.89 0.02 84 1008.3
20260506113527 48 310 2.6 10.4 0.04 1.89 0.02 85 1008.2
20260506113050 48 325 4.3 10.4 0.01 0.38 0.02 85 1008.0
20260506113014 48 305 5.2 10.4 0.04 1.89 0.02 86 1008.1
20260506112526 49 282 4.3 9.6 0.04 1.89 0.02 86 1008.0
20260506112031 49 315 4.3 8.7 0.04 1.89 0.02 86 1007.9
20260506111551 48 263 3.5 8.7 0.00 0.37 0.02 87 1007.7
20260506111516 49 304 3.5 8.7 0.00 1.85 0.02 87 1007.8
20260506111028 49 298 2.6 11.3 0.00 1.85 0.02 87 1007.8
20260506110512 49 294 2.6 11.3 0.00 1.85 0.02 86 1007.5
20260506110044 49 294 0.9 7.0 0.00 0.37 0.02 86 1007.4
20260506110013 49 293 1.7 7.0 0.00 1.85 0.02 86 1007.5
20260506105524 49 283 2.6 7.0 0.00 1.85 0.02 86 1007.4
20260506105028 49 305 1.7 6.1 0.00 1.85 0.02 87 1007.3
20260506104551 49 284 1.7 6.1 0.00 0.37 0.02 88 1007.1
20260506104512 49 280 284.2 6.1 0.00 1.85 0.02 88 1007.2
20260506104025 0 0.0 0.0 0.00 1.85 0.02 1007.1
20260506103531 0 0.0 0.0 0.00 1.85 0.02 1007.0
20260506103057 0 0.0 0.0 0.00 0.37 0.02 1007.0
20260506103016 0 0.0 0.0 0.00 1.85 0.02 1007.1
20260506102547 0 0.0 0.0 0.00 1.85 0.02 1007.0
20260506102015 0 0.0 0.0 0.00 1.85 0.02 1007.1
20260506101528 0 0.0 0.0 0.00 1.85 0.02 1006.9
20260506101501 0 0.0 0.0 0.00 0.37 0.02 1006.8
20260506101012 0 0.0 0.0 0.00 1.85 0.02 1006.9
20260506100519 0 0.0 0.0 0.00 1.85 0.02 1006.8
20260506100118 0 0.0 0.0 0.02 0.37 0.02 1006.6
20260506100047 0 0.0 0.0 0.08 1.85 0.02 1006.7